Regional Weather Roundup
Issued by NWS

Home | Current Version | Previous Version | Text Only | Print | Product List | Glossary Off
Versions: 1 2 3 4 5 6 7 8 9 10 11 12 13 14 15 16 17 18 19 20 21 22 23 24 25 26 27 28 29 30 31 32 33 34 35 36 37 38 39 40 41 42 43 44 45 46 47 48 49 50

000
ASUS43 KLOT 210910
RWRIL

ILLINOIS REGIONAL WEATHER ROUNDUP
NATIONAL WEATHER SERVICE CHICAGO/ROMEOVILLE IL
400 AM CDT TUE OCT 21 2014

NOTE: "FAIR" INDICATES FEW OR NO CLOUDS BELOW 12,000 FEET WITH NO
SIGNIFICANT WEATHER AND/OR OBSTRUCTIONS TO VISIBILITY.

* THESE STATIONS ARE NOT UNDER NWS QUALITY CONTROL. THEY ALSO MAY NOT
  REPORT WEATHER SUCH AS PRECIPITATION OR FOG.

ILZ001-002-007-009-015-016-024-211000-
NORTHWEST ILLINOIS

CITY           SKY/WX    TMP DP  RH WIND       PRES   REMARKS
MOLINE         CLEAR     39  37  92 CALM      30.08R
STERLING*      CLEAR     39  36  87 N3        30.07R
SAVANNA*       CLEAR     39  38  95 N3        30.08R
$$

ILZ003-004-008-010-011-017-018-211000-
NORTH CENTRAL ILLINOIS

CITY           SKY/WX    TMP DP  RH WIND       PRES   REMARKS
ROCKFORD       PTCLDY    45  40  82 N6        30.08R
FREEPORT*      CLEAR     38  36  92 NW6       30.09R WCI  34
ROCHELLE*      PTCLDY    40  39  95 N5        30.06R
DE KALB*       CLOUDY    47  42  82 N6        30.05R
PERU*          CLEAR     41  38  90 NW7       30.06R
$$

ILZ005-006-012>014-019>023-211000-
NORTHEAST ILLINOIS

CITY           SKY/WX    TMP DP  RH WIND       PRES   REMARKS
CHICAGO-OHARE  CLOUDY    50  40  68 N10       30.02R
CHICAGO-MIDWAY CLOUDY    53  43  68 N12       30.02R
AURORA         CLOUDY    48  41  76 NW6       30.04R
LANSING*       CLOUDY    51  44  76 N9        30.01S
JOLIET*        CLOUDY    49  43  80 CALM      30.03R
WAUKEGAN       CLOUDY    48  41  76 NW6       30.03R
DUPAGE AIRPORT CLOUDY    50  43  77 N8        30.03R
KANKAKEE*      MOCLDY    48  43  84 NW3       30.03R
WHEELING       CLOUDY    50  41  71 N8        30.04R
MORRIS*        CLEAR     45  42  89 NW5       30.03R
ROMEOVILLE*    CLOUDY    49  42  78 N5        30.03R
NORTHERLY ISL    N/A     51  45  79 MISG        N/A
$$

LMZ740>746-211000-
SOUTHERN LAKE MICHIGAN

STATION/POSITION SKY/WX   TEMP    WIND        PRES    VSBY  WAVE
                          AIR SEA DIR/SP/G                  HT/PER
                          (F)     (DEG/KT/KT) (MB)    (MI)  (FT/S)
SOUTHERN BUOY              49 54  360/ 19/ 21 1016.4R         5/ 6
WAUKEGAN HARBOR            49     350/ 10/ 12   N/A
HARRISON CRIB              50      10/ 16/ 18   N/A
BURNHAM HARBOR             51     350/ 12/ 14   N/A
CALUMET HARBOR             51     340/ 12/ 18 1015.2R
MICHIGAN CITY              50     350/ 22/ 27   N/A
$$

ILZ025>027-034>036-040-047-049-050-058-095>099-211000-
WEST-CENTRAL ILLINOIS

CITY           SKY/WX    TMP DP  RH WIND       PRES   REMARKS
QUINCY         CLEAR     45  41  86 N6        30.04S
GALESBURG*     CLEAR     39  37  95 CALM      30.07R
MACOMB*        CLEAR     40  39  95 CALM      30.08R
JACKSONVILLE*  CLEAR     45  42  88 N5        30.04R
PITTSFIELD*    CLEAR     45  41  86 W5        30.05S
$$

ILZ028>032-037-038-041>044-048-051>054-059>061-211000-
CENTRAL ILLINOIS

CITY           SKY/WX    TMP DP  RH WIND       PRES   REMARKS
PONTIAC        CLOUDY    46  45  93 NW5       30.03S
BLOOMINGTON    CLEAR     45  41  86 NW6       30.04S
DECATUR        CLEAR     42  39  89 CALM      30.03S
PEORIA         CLEAR     46  41  82 N3        30.05S
LACON*         CLEAR     38  37  96 CALM      30.05S FOG
LINCOLN*       CLEAR     45  42  91 N3        30.03R
SPRINGFIELD    CLEAR     45  42  89 N3        30.04R
TAYLORVILLE    CLEAR     41  41 100 CALM      30.02S
$$

ILZ033-039-045-046-055>057-062-063-211000-
EAST-CENTRAL ILLINOIS

CITY           SKY/WX    TMP DP  RH WIND       PRES   REMARKS
CHAMPAIGN      CLOUDY    43  42  97 NW6       30.03R FOG
DANVILLE*      CLOUDY    47  46  96 NW5       29.99S
RANTOUL*       PTCLDY    46  43  90 W5        30.03R FOG
MATTOON        CLEAR     44  41  89 CALM      30.01S
PARIS*         MOCLDY    46  45  99 NW3       30.03R FOG
$$

ILZ079-100>102-211000-
SOUTHWEST ILLINOIS

CITY           SKY/WX    TMP DP  RH WIND       PRES   REMARKS
ALTON          CLEAR     46  44  92 CALM      30.03S
BELLEVILLE     CLEAR     44  43  97 W2        30.02S
CAHOKIA*       CLEAR     50  45  83 CALM      30.03S
SPARTA*        CLEAR     50  43  78 W3        30.04S
$$

ILZ064>066-069>071-074>076-080>082-084>086-088>090-092>094-211000-
SOUTH-CENTRAL ILLINOIS

CITY           SKY/WX    TMP DP  RH WIND       PRES   REMARKS
CARBONDALE     CLEAR     44  41  89 SW3       30.03S
CAIRO*         FOG       46  44  92 W3        30.04R VSB 1/4
EFFINGHAM*       N/A     44  41  91 CALM      30.02R
MARION         CLEAR     46  46 100 SW3       30.03S
MT. VERNON     CLEAR     43  39  87 CALM      30.02S
CENTRALIA*     CLEAR     47  42  85 W3        30.03R
SALEM*         CLEAR     48  47  94 CALM      30.03R
METROPOLIS*    CLEAR     46  46 100 CALM      30.02R
$$

ILZ067-068-072-073-078-083-087-091-211000-
SOUTHEAST ILLINOIS

CITY           SKY/WX    TMP DP  RH WIND       PRES   REMARKS
LAWRENCEVILLE  CLEAR     46  44  93 NW6       30.02R
FLORA*         CLEAR     44  43  93 CALM      30.02S
FAIRFIELD*     CLEAR     44  43  97 CALM      30.01S
HARRISBURG*    CLEAR     44  44 100 CALM      30.03S
ROBINSON*      CLEAR     44  43  96 CALM      30.03R
CARMI*         CLEAR     45  44  97 CALM      30.01S
$$

ABBREVIATIONS USED IN REMARKS
   TC - TEMPERATURE IN CELSIUS
  WCI - WIND CHILL INDEX
   HX - HEAT INDEX
  VSB - VISIBILITY
$$



USA.gov is the U.S. government's official web portal to all federal, state and local government web resources and services.